Time,TemperatureF,DewpointF,PressureIn,WindDirection,WindDirectionDegrees,WindSpeedMPH,WindSpeedGustMPH,Humidity,HourlyPrecipIn,Conditions,Clouds,dailyrainin,SoftwareType,DateUTC
2013-01-09 00:00:00,38.5,34.1,30.08,SSW,211,5.8,9.6,84,0.00,,CLR,0.00,VWS V14.01,2013-01-09 06:00:00,
2013-01-09 00:02:00,38.5,34.1,30.09,SW,221,5.8,8.3,84,0.00,,BKN110,0.00,VWS V14.01,2013-01-09 06:02:00,
2013-01-09 00:05:00,38.3,33.9,30.08,SSW,200,5.8,8.3,84,0.00,,CLR,0.00,VWS V14.01,2013-01-09 06:05:00,
2013-01-09 00:07:00,38.1,33.7,30.09,SSW,212,5.8,9.6,84,0.00,,OVC090,0.00,VWS V14.01,2013-01-09 06:07:00,
2013-01-09 00:10:00,38.1,33.7,30.08,SW,216,4.9,9.6,84,0.00,,CLR,0.00,VWS V14.01,2013-01-09 06:10:00,
2013-01-09 00:12:00,38.1,33.7,30.09,SSW,209,4.9,8.3,84,0.00,,OVC090,0.00,VWS V14.01,2013-01-09 06:12:00,
2013-01-09 00:15:00,37.9,33.5,30.08,SW,225,5.4,8.3,84,0.00,,CLR,0.00,VWS V14.01,2013-01-09 06:15:00,
2013-01-09 00:17:00,37.9,33.5,30.09,SSW,213,5.4,6.3,84,0.00,,OVC090,0.00,VWS V14.01,2013-01-09 06:17:00,
2013-01-09 00:20:00,37.9,33.5,30.08,South,190,5.8,7.6,84,0.00,,CLR,0.00,VWS V14.01,2013-01-09 06:20:00,
2013-01-09 00:22:00,37.9,33.5,30.09,SW,224,6.3,6.3,84,0.00,,OVC090,0.00,VWS V14.01,2013-01-09 06:22:00,
2013-01-09 00:25:00,37.9,33.5,30.08,WSW,237,4.0,6.3,84,0.00,,CLR,0.00,VWS V14.01,2013-01-09 06:25:00,
2013-01-09 00:27:00,37.9,33.5,30.09,SW,216,4.0,5.8,84,0.00,,OVC090,0.00,VWS V14.01,2013-01-09 06:27:00,
2013-01-09 00:30:00,37.9,33.5,30.08,WSW,237,4.0,5.8,84,0.00,,CLR,0.00,VWS V14.01,2013-01-09 06:30:00,
2013-01-09 00:32:00,37.9,33.5,30.09,SW,221,4.9,6.3,84,0.00,,OVC090,0.00,VWS V14.01,2013-01-09 06:32:00,
2013-01-09 00:35:00,37.9,33.5,30.08,SW,222,4.0,6.3,84,0.00,,CLR,0.00,VWS V14.01,2013-01-09 06:35:00,
2013-01-09 00:37:00,37.9,33.5,30.09,South,183,6.3,6.3,84,0.00,,OVC090,0.00,VWS V14.01,2013-01-09 06:37:00,
2013-01-09 00:40:00,37.9,33.5,30.08,SSW,207,4.0,7.2,84,0.00,,CLR,0.00,VWS V14.01,2013-01-09 06:40:00,
2013-01-09 00:42:00,37.9,33.5,30.09,SW,230,5.4,5.4,84,0.00,,OVC090,0.00,VWS V14.01,2013-01-09 06:42:00,
2013-01-09 00:45:00,38.1,33.7,30.08,SSW,208,8.7,10.1,84,0.00,,CLR,0.00,VWS V14.01,2013-01-09 06:45:00,
2013-01-09 00:47:00,38.1,33.7,30.09,SSW,212,5.4,8.7,84,0.00,,OVC090,0.00,VWS V14.01,2013-01-09 06:47:00,
2013-01-09 00:50:00,38.1,33.7,30.08,South,187,4.0,8.7,84,0.00,,CLR,0.00,VWS V14.01,2013-01-09 06:50:00,
2013-01-09 00:52:00,38.1,33.7,30.09,SW,219,6.3,10.5,84,0.00,,OVC090,0.00,VWS V14.01,2013-01-09 06:52:00,
2013-01-09 00:55:00,38.1,33.7,30.08,SSW,203,5.4,10.5,84,0.00,,CLR,0.00,VWS V14.01,2013-01-09 06:55:00,
2013-01-09 00:57:00,38.1,33.7,30.09,WSW,241,5.4,6.3,84,0.00,,OVC090,0.00,VWS V14.01,2013-01-09 06:57:00,
2013-01-09 01:00:00,38.1,33.7,30.08,SSW,211,8.7,8.7,84,0.00,,CLR,0.00,VWS V14.01,2013-01-09 07:00:00,
2013-01-09 01:02:00,38.1,33.7,30.09,SW,221,6.3,9.2,84,0.00,,OVC090,0.00,VWS V14.01,2013-01-09 07:02:00,
2013-01-09 01:05:00,38.1,33.7,30.08,SSW,208,6.3,9.2,84,0.00,,CLR,0.00,VWS V14.01,2013-01-09 07:05:00,
2013-01-09 01:07:00,38.1,33.7,30.09,SW,225,4.9,6.3,84,0.00,,FEW120,0.00,VWS V14.01,2013-01-09 07:07:00,
2013-01-09 01:10:00,38.1,33.7,30.08,SSW,209,4.9,6.3,84,0.00,,CLR,0.00,VWS V14.01,2013-01-09 07:10:00,
2013-01-09 01:12:00,38.1,33.7,30.09,SW,216,5.4,5.8,84,0.00,,FEW120,0.00,VWS V14.01,2013-01-09 07:12:00,
2013-01-09 01:15:00,38.1,33.7,30.08,WSW,237,3.1,6.7,84,0.00,,CLR,0.00,VWS V14.01,2013-01-09 07:15:00,
2013-01-09 01:17:00,38.1,33.7,30.09,SSW,210,4.0,5.4,84,0.00,,FEW120,0.00,VWS V14.01,2013-01-09 07:17:00,
2013-01-09 01:20:00,37.9,33.5,30.08,SSW,202,4.0,6.3,84,0.00,,CLR,0.00,VWS V14.01,2013-01-09 07:20:00,
2013-01-09 01:22:00,37.9,33.5,30.09,SW,223,4.9,5.4,84,0.00,,FEW120,0.00,VWS V14.01,2013-01-09 07:22:00,
2013-01-09 01:25:00,37.9,33.5,30.08,SW,219,6.3,6.3,84,0.00,,CLR,0.00,VWS V14.01,2013-01-09 07:25:00,
2013-01-09 01:27:00,37.9,33.5,30.09,SSW,205,4.9,6.3,84,0.00,,FEW120,0.00,VWS V14.01,2013-01-09 07:27:00,
2013-01-09 01:30:00,37.9,33.5,30.11,SW,215,5.4,6.3,84,0.00,,CLR,0.00,VWS V14.01,2013-01-09 07:30:00,
2013-01-09 01:32:00,38.1,33.7,30.11,SW,225,5.8,7.2,84,0.00,,FEW120,0.00,VWS V14.01,2013-01-09 07:32:00,
2013-01-09 01:35:00,38.1,33.7,30.11,SW,214,5.4,7.2,84,0.00,,CLR,0.00,VWS V14.01,2013-01-09 07:35:00,
2013-01-09 01:37:00,38.3,33.9,30.11,SW,216,4.9,5.8,84,0.00,,FEW120,0.00,VWS V14.01,2013-01-09 07:37:00,
2013-01-09 01:40:00,38.3,33.9,30.11,SW,217,3.6,5.8,84,0.00,,CLR,0.00,VWS V14.01,2013-01-09 07:40:00,
2013-01-09 01:42:00,38.3,33.9,30.11,WSW,238,4.9,5.8,84,0.00,,FEW120,0.00,VWS V14.01,2013-01-09 07:42:00,
2013-01-09 01:45:00,38.3,33.9,30.11,SW,228,4.9,5.8,84,0.00,,CLR,0.00,VWS V14.01,2013-01-09 07:45:00,
2013-01-09 01:47:00,38.3,33.9,30.11,SW,221,3.6,4.9,84,0.00,,FEW120,0.00,VWS V14.01,2013-01-09 07:47:00,
2013-01-09 01:50:00,38.3,33.9,30.11,WSW,237,3.1,4.9,84,0.00,,CLR,0.00,VWS V14.01,2013-01-09 07:50:00,
2013-01-09 01:52:00,38.3,33.9,30.11,SW,217,4.0,6.3,84,0.00,,FEW120,0.00,VWS V14.01,2013-01-09 07:52:00,
2013-01-09 01:55:00,38.1,33.7,30.11,WSW,241,4.9,6.3,84,0.00,,CLR,0.00,VWS V14.01,2013-01-09 07:55:00,
2013-01-09 01:57:00,38.1,33.7,30.11,WSW,238,2.7,4.9,84,0.00,,FEW120,0.00,VWS V14.01,2013-01-09 07:57:00,
2013-01-09 02:00:00,38.1,33.7,30.11,SW,231,4.0,4.9,84,0.00,,CLR,0.00,VWS V14.01,2013-01-09 08:00:00,
2013-01-09 02:02:00,38.1,33.7,30.11,WSW,246,3.6,4.5,84,0.00,,CLR,0.00,VWS V14.01,2013-01-09 08:02:00,
2013-01-09 02:05:00,37.9,33.5,30.11,WSW,237,4.0,6.3,84,0.00,,CLR,0.00,VWS V14.01,2013-01-09 08:05:00,
2013-01-09 02:07:00,38.1,33.7,30.11,WSW,238,3.1,5.4,84,0.00,,CLR,0.00,VWS V14.01,2013-01-09 08:07:00,
2013-01-09 02:10:00,38.1,33.7,30.11,WSW,249,3.1,5.4,84,0.00,,CLR,0.00,VWS V14.01,2013-01-09 08:10:00,
2013-01-09 02:12:00,38.3,33.9,30.11,WSW,246,6.3,6.3,84,0.00,,CLR,0.00,VWS V14.01,2013-01-09 08:12:00,
2013-01-09 02:15:00,38.5,34.1,30.11,WSW,248,5.8,6.3,84,0.00,,CLR,0.00,VWS V14.01,2013-01-09 08:15:00,
2013-01-09 02:18:00,38.7,34.2,30.11,WSW,249,5.4,5.8,84,0.00,,CLR,0.00,VWS V14.01,2013-01-09 08:18:00,
2013-01-09 02:20:00,38.8,34.4,30.11,WSW,240,4.0,8.1,84,0.00,,CLR,0.00,VWS V14.01,2013-01-09 08:20:00,
2013-01-09 02:23:00,39.2,33.7,30.11,SW,215,8.1,10.5,80,0.00,,CLR,0.00,VWS V14.01,2013-01-09 08:23:00,
2013-01-09 02:25:00,39.7,34.2,30.11,WSW,237,5.8,10.5,80,0.00,,CLR,0.00,VWS V14.01,2013-01-09 08:25:00,
2013-01-09 02:28:00,40.1,34.6,30.11,SW,233,4.0,8.1,80,0.00,,CLR,0.00,VWS V14.01,2013-01-09 08:28:00,
2013-01-09 02:30:00,40.5,34.9,30.14,WSW,255,3.6,8.1,80,0.00,,CLR,0.00,VWS V14.01,2013-01-09 08:30:00,
2013-01-09 02:33:00,40.5,34.9,30.14,WSW,257,6.3,7.6,80,0.00,,CLR,0.00,VWS V14.01,2013-01-09 08:33:00,
2013-01-09 02:35:00,40.8,35.3,30.14,West,275,6.3,12.8,80,0.00,,CLR,0.00,VWS V14.01,2013-01-09 08:35:00,
2013-01-09 02:38:00,41.0,35.5,30.14,WSW,247,7.6,7.6,80,0.00,,CLR,0.00,VWS V14.01,2013-01-09 08:38:00,
2013-01-09 02:40:00,41.2,35.7,30.14,SW,235,4.9,7.6,80,0.00,,CLR,0.00,VWS V14.01,2013-01-09 08:40:00,
2013-01-09 02:43:00,41.2,35.7,30.14,SSW,208,6.3,6.3,80,0.00,,CLR,0.00,VWS V14.01,2013-01-09 08:43:00,
2013-01-09 02:45:00,41.2,35.7,30.14,WSW,249,6.3,8.3,80,0.00,,CLR,0.00,VWS V14.01,2013-01-09 08:45:00,
2013-01-09 02:48:00,41.2,35.7,30.14,WSW,254,4.0,6.3,80,0.00,,CLR,0.00,VWS V14.01,2013-01-09 08:48:00,
2013-01-09 02:50:00,41.2,35.7,30.14,WSW,244,6.3,8.7,80,0.00,,CLR,0.00,VWS V14.01,2013-01-09 08:50:00,
2013-01-09 02:53:00,41.2,35.7,30.14,West,264,6.3,6.3,80,0.00,,CLR,0.00,VWS V14.01,2013-01-09 08:53:00,
2013-01-09 02:55:00,41.0,35.5,30.14,West,259,5.4,8.7,80,0.00,,CLR,0.00,VWS V14.01,2013-01-09 08:55:00,
2013-01-09 02:58:00,41.0,35.5,30.14,WSW,248,7.6,8.1,80,0.00,,CLR,0.00,VWS V14.01,2013-01-09 08:58:00,
2013-01-09 03:00:00,40.8,35.3,30.14,West,279,3.1,8.1,80,0.00,,CLR,0.00,VWS V14.01,2013-01-09 09:00:00,
2013-01-09 03:03:00,40.8,35.3,30.14,SW,233,5.8,8.7,80,0.00,,CLR,0.00,VWS V14.01,2013-01-09 09:03:00,
2013-01-09 03:05:00,40.6,35.1,30.14,NW,309,3.6,8.7,80,0.00,,CLR,0.00,VWS V14.01,2013-01-09 09:05:00,
2013-01-09 03:08:00,40.6,35.1,30.14,WSW,253,5.8,5.8,80,0.00,,CLR,0.00,VWS V14.01,2013-01-09 09:08:00,
2013-01-09 03:10:00,40.5,34.9,30.14,West,266,5.4,8.3,80,0.00,,CLR,0.00,VWS V14.01,2013-01-09 09:10:00,
2013-01-09 03:13:00,40.5,34.9,30.14,WSW,257,4.9,6.3,80,0.00,,CLR,0.00,VWS V14.01,2013-01-09 09:13:00,
2013-01-09 03:15:00,40.3,34.8,30.17,WSW,250,3.6,8.1,80,0.00,,CLR,0.00,VWS V14.01,2013-01-09 09:15:00,
2013-01-09 03:18:00,40.3,34.8,30.17,WNW,287,6.3,6.3,80,0.00,,CLR,0.00,VWS V14.01,2013-01-09 09:18:00,
2013-01-09 03:20:00,40.3,34.8,30.17,WSW,250,5.4,7.6,80,0.00,,CLR,0.00,VWS V14.01,2013-01-09 09:20:00,
2013-01-09 03:23:00,40.3,34.8,30.17,WSW,257,5.4,6.3,80,0.00,,CLR,0.00,VWS V14.01,2013-01-09 09:23:00,
2013-01-09 03:28:00,40.1,34.6,30.17,WNW,285,4.0,5.4,80,0.00,,CLR,0.00,VWS V14.01,2013-01-09 09:28:00,
2013-01-09 03:33:00,39.9,34.4,30.14,WSW,246,3.6,6.3,80,0.00,,CLR,0.00,VWS V14.01,2013-01-09 09:33:00,
2013-01-09 03:38:00,39.7,34.2,30.14,WSW,245,5.8,6.3,80,0.00,,CLR,0.00,VWS V14.01,2013-01-09 09:38:00,
2013-01-09 03:43:00,39.7,34.2,30.14,WSW,252,4.0,5.8,80,0.00,,CLR,0.00,VWS V14.01,2013-01-09 09:43:00,
2013-01-09 03:48:00,39.4,33.9,30.17,WSW,245,5.4,6.3,80,0.00,,CLR,0.00,VWS V14.01,2013-01-09 09:48:00,
2013-01-09 03:53:00,39.2,33.7,30.17,SW,229,3.6,5.8,80,0.00,,CLR,0.00,VWS V14.01,2013-01-09 09:53:00,
2013-01-09 03:58:00,39.0,34.6,30.17,West,279,4.0,5.4,84,0.00,,CLR,0.00,VWS V14.01,2013-01-09 09:58:00,
2013-01-09 04:03:00,38.8,34.4,30.17,West,281,3.6,5.4,84,0.00,,CLR,0.00,VWS V14.01,2013-01-09 10:03:00,
2013-01-09 04:08:00,38.7,34.2,30.17,WSW,245,4.0,5.4,84,0.00,,CLR,0.00,VWS V14.01,2013-01-09 10:08:00,
2013-01-09 04:13:00,38.5,34.1,30.17,SW,235,4.0,4.9,84,0.00,,CLR,0.00,VWS V14.01,2013-01-09 10:13:00,
2013-01-09 04:18:00,38.3,33.9,30.17,WSW,246,3.6,5.8,84,0.00,,CLR,0.00,VWS V14.01,2013-01-09 10:18:00,
2013-01-09 04:23:00,38.1,33.7,30.17,WSW,251,4.0,6.3,84,0.00,,CLR,0.00,VWS V14.01,2013-01-09 10:23:00,
2013-01-09 04:28:00,38.1,33.7,30.17,SW,229,4.0,5.8,84,0.00,,CLR,0.00,VWS V14.01,2013-01-09 10:28:00,
2013-01-09 04:33:00,38.1,33.7,30.17,WSW,247,4.9,6.3,84,0.00,,CLR,0.00,VWS V14.01,2013-01-09 10:33:00,
2013-01-09 04:38:00,37.9,33.5,30.17,WSW,243,3.6,5.8,84,0.00,,CLR,0.00,VWS V14.01,2013-01-09 10:38:00,
2013-01-09 04:43:00,37.9,33.5,30.17,WSW,240,2.7,6.3,84,0.00,,CLR,0.00,VWS V14.01,2013-01-09 10:43:00,
2013-01-09 04:48:00,37.9,33.5,30.20,West,278,4.0,8.1,84,0.00,,CLR,0.00,VWS V14.01,2013-01-09 10:48:00,
2013-01-09 04:53:00,37.9,33.5,30.20,West,260,4.9,7.6,84,0.00,,CLR,0.00,VWS V14.01,2013-01-09 10:53:00,
2013-01-09 04:58:00,37.9,33.5,30.20,WSW,246,4.9,6.3,84,0.00,,CLR,0.00,VWS V14.01,2013-01-09 10:58:00,
2013-01-09 05:03:00,37.8,33.4,30.20,West,273,3.6,4.9,84,0.00,,CLR,0.00,VWS V14.01,2013-01-09 11:03:00,
2013-01-09 05:08:00,37.6,33.2,30.20,WSW,239,4.0,5.4,84,0.00,,CLR,0.00,VWS V14.01,2013-01-09 11:08:00,
2013-01-09 05:13:00,37.4,33.0,30.20,West,259,4.0,8.1,84,0.00,,CLR,0.00,VWS V14.01,2013-01-09 11:13:00,
2013-01-09 05:18:00,37.4,33.0,30.23,SW,231,3.1,5.8,84,0.00,,CLR,0.00,VWS V14.01,2013-01-09 11:18:00,
2013-01-09 05:23:00,37.2,32.8,30.23,WSW,245,2.7,6.3,84,0.00,,CLR,0.00,VWS V14.01,2013-01-09 11:23:00,
2013-01-09 05:28:00,37.0,32.7,30.23,WSW,244,3.6,4.9,84,0.00,,CLR,0.00,VWS V14.01,2013-01-09 11:28:00,
2013-01-09 05:33:00,37.0,32.7,30.23,WSW,245,3.6,5.8,84,0.00,,CLR,0.00,VWS V14.01,2013-01-09 11:33:00,
2013-01-09 05:38:00,37.0,32.7,30.23,WSW,240,5.4,5.4,84,0.00,,CLR,0.00,VWS V14.01,2013-01-09 11:38:00,
2013-01-09 05:43:00,36.9,32.5,30.23,WSW,246,4.0,5.8,84,0.00,,CLR,0.00,VWS V14.01,2013-01-09 11:43:00,
2013-01-09 05:48:00,36.9,32.5,30.23,West,275,5.4,5.8,84,0.00,,CLR,0.00,VWS V14.01,2013-01-09 11:48:00,
2013-01-09 05:53:00,36.7,32.3,30.23,WSW,248,4.0,6.3,84,0.00,,CLR,0.00,VWS V14.01,2013-01-09 11:53:00,
2013-01-09 05:58:00,36.7,32.3,30.23,SW,232,4.0,4.0,84,0.00,,CLR,0.00,VWS V14.01,2013-01-09 11:58:00,
2013-01-09 06:03:00,36.3,32.0,30.23,WSW,244,4.0,4.9,84,0.00,,CLR,0.00,VWS V14.01,2013-01-09 12:03:00,
2013-01-09 06:08:00,36.1,31.8,30.23,SW,219,3.1,3.6,84,0.00,,CLR,0.00,VWS V14.01,2013-01-09 12:08:00,
2013-01-09 06:13:00,35.8,31.4,30.23,WSW,255,0.0,4.0,84,0.00,,CLR,0.00,VWS V14.01,2013-01-09 12:13:00,
2013-01-09 06:18:00,35.6,31.2,30.23,WNW,293,3.1,3.6,84,0.00,,CLR,0.00,VWS V14.01,2013-01-09 12:18:00,
2013-01-09 06:23:00,35.4,32.1,30.23,West,266,3.1,4.0,88,0.00,,CLR,0.00,VWS V14.01,2013-01-09 12:23:00,
2013-01-09 06:28:00,35.4,32.1,30.26,WSW,241,4.0,6.3,88,0.00,,CLR,0.00,VWS V14.01,2013-01-09 12:28:00,
2013-01-09 06:33:00,35.4,32.1,30.26,West,264,4.0,4.0,88,0.00,,CLR,0.00,VWS V14.01,2013-01-09 12:33:00,
2013-01-09 06:38:00,35.2,31.9,30.26,WSW,248,4.0,4.0,88,0.00,,CLR,0.00,VWS V14.01,2013-01-09 12:38:00,
2013-01-09 06:43:00,35.2,31.9,30.26,WSW,250,2.7,4.0,88,0.00,,CLR,0.00,VWS V14.01,2013-01-09 12:43:00,
2013-01-09 06:48:00,35.1,31.7,30.26,West,267,2.7,3.6,88,0.00,,CLR,0.00,VWS V14.01,2013-01-09 12:48:00,
2013-01-09 06:53:00,34.9,31.5,30.26,WSW,250,0.0,3.6,88,0.00,,CLR,0.00,VWS V14.01,2013-01-09 12:53:00,
2013-01-09 06:58:00,34.7,31.4,30.26,WSW,253,0.0,0.0,88,0.00,,CLR,0.00,VWS V14.01,2013-01-09 12:58:00,
2013-01-09 07:03:00,34.5,31.2,30.26,WSW,237,0.0,0.0,88,0.00,,CLR,0.00,VWS V14.01,2013-01-09 13:03:00,
2013-01-09 07:08:00,34.3,31.0,30.26,WSW,240,0.0,0.0,88,0.00,,CLR,0.00,VWS V14.01,2013-01-09 13:08:00,
2013-01-09 07:13:00,34.3,31.0,30.29,SW,226,0.0,0.0,88,0.00,,CLR,0.00,VWS V14.01,2013-01-09 13:13:00,
2013-01-09 07:18:00,34.2,30.8,30.29,SW,226,0.0,0.0,88,0.00,,CLR,0.00,VWS V14.01,2013-01-09 13:18:00,
2013-01-09 07:23:00,34.0,30.7,30.29,SSW,213,0.0,3.1,88,0.00,,CLR,0.00,VWS V14.01,2013-01-09 13:23:00,
2013-01-09 07:28:00,33.8,30.5,30.29,SSW,213,0.0,0.0,88,0.00,,CLR,0.00,VWS V14.01,2013-01-09 13:28:00,
2013-01-09 07:33:00,33.8,30.5,30.29,SSW,213,0.0,0.0,88,0.00,,CLR,0.00,VWS V14.01,2013-01-09 13:33:00,
2013-01-09 07:38:00,33.6,30.3,30.29,SSW,213,0.0,0.0,88,0.00,,CLR,0.00,VWS V14.01,2013-01-09 13:38:00,
2013-01-09 07:43:00,33.4,30.1,30.29,SSW,213,0.0,0.0,88,0.00,,CLR,0.00,VWS V14.01,2013-01-09 13:43:00,
2013-01-09 07:48:00,33.4,30.1,30.29,SSW,213,0.0,0.0,88,0.00,,CLR,0.00,VWS V14.01,2013-01-09 13:48:00,
2013-01-09 07:53:00,33.4,30.1,30.29,SSW,213,0.0,0.0,88,0.00,,CLR,0.00,VWS V14.01,2013-01-09 13:53:00,
2013-01-09 07:58:00,33.4,30.1,30.29,WSW,253,0.0,0.0,88,0.00,,CLR,0.00,VWS V14.01,2013-01-09 13:58:00,
2013-01-09 08:03:00,33.6,30.3,30.29,SSW,206,0.0,0.0,88,0.00,,CLR,0.00,VWS V14.01,2013-01-09 14:03:00,
2013-01-09 08:08:00,33.8,30.5,30.29,SW,225,0.0,0.0,88,0.00,,CLR,0.00,VWS V14.01,2013-01-09 14:08:00,
2013-01-09 08:13:00,34.0,30.7,30.32,SW,235,0.0,0.0,88,0.00,,CLR,0.00,VWS V14.01,2013-01-09 14:13:00,
2013-01-09 08:18:00,34.3,31.0,30.32,SW,231,0.0,0.0,88,0.00,,CLR,0.00,VWS V14.01,2013-01-09 14:18:00,
2013-01-09 08:23:00,34.9,31.5,30.32,SW,234,3.6,4.0,88,0.00,,CLR,0.00,VWS V14.01,2013-01-09 14:23:00,
2013-01-09 08:28:00,35.4,32.1,30.32,SW,216,3.1,4.0,88,0.00,,CLR,0.00,VWS V14.01,2013-01-09 14:28:00,
2013-01-09 08:33:00,35.6,31.2,30.32,SW,217,4.0,4.0,84,0.00,,CLR,0.00,VWS V14.01,2013-01-09 14:33:00,
2013-01-09 08:38:00,36.0,31.6,30.32,SW,224,0.0,4.9,84,0.00,,CLR,0.00,VWS V14.01,2013-01-09 14:38:00,
2013-01-09 08:43:00,36.5,32.1,30.32,SW,229,3.6,4.9,84,0.00,,CLR,0.00,VWS V14.01,2013-01-09 14:43:00,
2013-01-09 08:48:00,36.9,32.5,30.32,SSW,212,3.6,5.8,84,0.00,,CLR,0.00,VWS V14.01,2013-01-09 14:48:00,
2013-01-09 08:53:00,37.4,33.0,30.32,WSW,238,2.2,4.9,84,0.00,,CLR,0.00,VWS V14.01,2013-01-09 14:53:00,
2013-01-09 08:58:00,37.9,33.5,30.32,SSW,212,3.1,5.8,84,0.00,,CLR,0.00,VWS V14.01,2013-01-09 14:58:00,
2013-01-09 09:03:00,38.5,34.1,30.32,WSW,240,3.1,5.4,84,0.00,,CLR,0.00,VWS V14.01,2013-01-09 15:03:00,
2013-01-09 09:08:00,39.0,34.6,30.32,WSW,237,2.7,5.8,84,0.00,,CLR,0.00,VWS V14.01,2013-01-09 15:08:00,
2013-01-09 09:13:00,39.7,34.2,30.32,West,263,4.0,6.3,80,0.00,,CLR,0.00,VWS V14.01,2013-01-09 15:13:00,
2013-01-09 09:18:00,40.1,34.6,30.32,SW,226,5.8,5.8,80,0.00,,CLR,0.00,VWS V14.01,2013-01-09 15:18:00,
2013-01-09 09:23:00,40.6,35.1,30.32,SW,225,5.8,7.6,80,0.00,,CLR,0.00,VWS V14.01,2013-01-09 15:23:00,
2013-01-09 09:28:00,41.0,35.5,30.32,SW,231,4.9,7.6,80,0.00,,CLR,0.00,VWS V14.01,2013-01-09 15:28:00,
2013-01-09 09:33:00,41.2,35.7,30.35,WSW,256,5.8,6.3,80,0.00,,CLR,0.00,VWS V14.01,2013-01-09 15:33:00,
2013-01-09 09:38:00,40.8,35.3,30.35,WSW,249,4.0,6.7,80,0.00,,CLR,0.00,VWS V14.01,2013-01-09 15:38:00,
2013-01-09 09:43:00,40.8,35.3,30.35,SSW,211,0.0,5.8,80,0.00,,CLR,0.00,VWS V14.01,2013-01-09 15:43:00,
2013-01-09 09:48:00,41.0,35.5,30.35,WSW,238,3.1,7.2,80,0.00,,CLR,0.00,VWS V14.01,2013-01-09 15:48:00,
2013-01-09 09:53:00,41.2,35.7,30.35,West,271,7.2,7.2,80,0.00,,CLR,0.00,VWS V14.01,2013-01-09 15:53:00,
2013-01-09 09:58:00,41.7,36.2,30.35,West,263,5.4,6.3,80,0.00,,CLR,0.00,VWS V14.01,2013-01-09 15:58:00,
2013-01-09 10:03:00,42.3,36.7,30.35,West,277,5.4,8.3,80,0.00,,CLR,0.00,VWS V14.01,2013-01-09 16:03:00,
2013-01-09 10:08:00,42.4,36.9,30.35,West,263,5.4,7.6,80,0.00,,CLR,0.00,VWS V14.01,2013-01-09 16:08:00,
2013-01-09 10:13:00,42.6,37.0,30.35,SW,217,5.8,6.3,80,0.00,,CLR,0.00,VWS V14.01,2013-01-09 16:13:00,
2013-01-09 10:18:00,43.0,37.4,30.35,West,280,3.1,7.2,80,0.00,,CLR,0.00,VWS V14.01,2013-01-09 16:18:00,
2013-01-09 10:23:00,43.3,37.8,30.35,West,278,2.7,8.7,80,0.00,,CLR,0.00,VWS V14.01,2013-01-09 16:23:00,
2013-01-09 10:28:00,43.9,38.3,30.35,NNW,340,0.0,6.3,80,0.00,,CLR,0.00,VWS V14.01,2013-01-09 16:28:00,
2013-01-09 10:33:00,44.1,38.5,30.35,WNW,292,6.3,6.3,80,0.00,,CLR,0.00,VWS V14.01,2013-01-09 16:33:00,
2013-01-09 10:38:00,44.2,38.6,30.35,SW,230,3.6,7.6,80,0.00,,CLR,0.00,VWS V14.01,2013-01-09 16:38:00,
2013-01-09 10:43:00,44.2,38.6,30.35,WSW,253,6.3,7.6,80,0.00,,CLR,0.00,VWS V14.01,2013-01-09 16:43:00,
2013-01-09 10:48:00,44.6,37.8,30.35,WNW,287,4.9,7.6,77,0.00,,CLR,0.00,VWS V14.01,2013-01-09 16:48:00,
2013-01-09 10:53:00,45.0,38.2,30.35,West,270,5.4,8.3,77,0.00,,CLR,0.00,VWS V14.01,2013-01-09 16:53:00,
2013-01-09 10:58:00,45.0,38.2,30.35,WSW,258,5.4,9.6,77,0.00,,CLR,0.00,VWS V14.01,2013-01-09 16:58:00,
2013-01-09 11:03:00,45.0,38.2,30.35,West,281,2.7,9.6,77,0.00,,CLR,0.00,VWS V14.01,2013-01-09 17:03:00,
2013-01-09 11:08:00,45.0,38.2,30.35,WSW,255,4.0,10.1,77,0.00,,CLR,0.00,VWS V14.01,2013-01-09 17:08:00,
2013-01-09 11:13:00,45.1,38.4,30.38,WSW,251,4.9,7.6,77,0.00,,CLR,0.00,VWS V14.01,2013-01-09 17:13:00,
2013-01-09 11:18:00,45.5,38.7,30.38,West,272,3.1,10.5,77,0.00,,CLR,0.00,VWS V14.01,2013-01-09 17:18:00,
2013-01-09 11:23:00,45.9,39.1,30.38,WSW,241,5.4,6.3,77,0.00,,CLR,0.00,VWS V14.01,2013-01-09 17:23:00,
2013-01-09 11:28:00,46.2,39.4,30.35,West,277,3.6,7.6,77,0.00,,CLR,0.00,VWS V14.01,2013-01-09 17:28:00,
2013-01-09 11:33:00,46.6,39.8,30.35,WSW,244,5.4,8.3,77,0.00,,CLR,0.00,VWS V14.01,2013-01-09 17:33:00,
2013-01-09 11:38:00,46.8,39.9,30.35,NW,315,8.1,10.1,77,0.00,,CLR,0.00,VWS V14.01,2013-01-09 17:38:00,
2013-01-09 11:43:00,46.8,39.9,30.35,NW,315,4.0,7.6,77,0.00,,CLR,0.00,VWS V14.01,2013-01-09 17:43:00,
2013-01-09 11:48:00,46.9,40.1,30.35,WSW,237,5.8,5.8,77,0.00,,CLR,0.00,VWS V14.01,2013-01-09 17:48:00,
2013-01-09 11:53:00,47.5,40.6,30.35,NNW,331,2.7,6.3,77,0.00,,CLR,0.00,VWS V14.01,2013-01-09 17:53:00,
2013-01-09 11:58:00,47.7,40.8,30.35,SSE,147,2.2,8.1,77,0.00,,CLR,0.00,VWS V14.01,2013-01-09 17:58:00,
2013-01-09 12:03:00,48.0,41.2,30.35,NNW,327,5.4,8.1,77,0.00,,CLR,0.00,VWS V14.01,2013-01-09 18:03:00,
2013-01-09 12:08:00,48.4,40.3,30.35,West,277,2.2,6.3,74,0.00,,CLR,0.00,VWS V14.01,2013-01-09 18:08:00,
2013-01-09 12:14:00,48.6,40.5,30.35,NW,322,5.8,7.6,74,0.00,,CLR,0.00,VWS V14.01,2013-01-09 18:14:00,
2013-01-09 12:19:00,48.6,40.5,30.35,West,276,3.6,5.8,74,0.00,,CLR,0.00,VWS V14.01,2013-01-09 18:19:00,
2013-01-09 12:24:00,48.9,40.8,30.35,SW,225,5.4,8.7,74,0.00,,CLR,0.00,VWS V14.01,2013-01-09 18:24:00,
2013-01-09 12:29:00,49.3,41.2,30.35,NW,316,3.6,7.6,74,0.00,,CLR,0.00,VWS V14.01,2013-01-09 18:29:00,
2013-01-09 12:34:00,49.5,41.3,30.35,NW,325,5.4,8.1,74,0.00,,CLR,0.00,VWS V14.01,2013-01-09 18:34:00,
2013-01-09 12:39:00,49.6,41.5,30.35,SW,230,4.0,7.2,74,0.00,,CLR,0.00,VWS V14.01,2013-01-09 18:39:00,
2013-01-09 12:41:00,49.8,41.7,30.35,NW,326,3.6,4.0,74,0.00,,CLR,0.00,VWS V14.01,2013-01-09 18:41:00,
2013-01-09 12:43:00,49.8,41.7,30.35,NNW,343,5.4,6.3,74,0.00,,CLR,0.00,VWS V14.01,2013-01-09 18:43:00,
2013-01-09 12:44:00,50.0,41.9,30.35,WNW,296,3.6,6.3,74,0.00,,CLR,0.00,VWS V14.01,2013-01-09 18:44:00,
2013-01-09 12:48:00,50.0,41.9,30.35,NNW,340,7.6,10.5,74,0.00,,CLR,0.00,VWS V14.01,2013-01-09 18:48:00,
2013-01-09 12:53:00,50.0,41.9,30.35,NNW,333,8.7,11.0,74,0.00,,CLR,0.00,VWS V14.01,2013-01-09 18:53:00,
2013-01-09 12:58:00,50.2,42.0,30.35,North,357,5.8,12.8,74,0.00,,CLR,0.00,VWS V14.01,2013-01-09 18:58:00,
2013-01-09 13:03:00,50.2,42.0,30.35,WNW,293,5.8,8.7,74,0.00,,CLR,0.00,VWS V14.01,2013-01-09 19:03:00,
2013-01-09 13:08:00,50.2,42.0,30.35,NW,316,5.4,13.2,74,0.00,,CLR,0.00,VWS V14.01,2013-01-09 19:08:00,
2013-01-09 13:13:00,50.4,42.2,30.35,NW,314,5.8,8.3,74,0.00,,CLR,0.00,VWS V14.01,2013-01-09 19:13:00,
2013-01-09 13:18:00,50.5,42.4,30.35,NW,324,3.1,10.1,74,0.00,,CLR,0.00,VWS V14.01,2013-01-09 19:18:00,
2013-01-09 13:23:00,50.5,42.4,30.35,NW,325,7.6,13.2,74,0.00,,CLR,0.00,VWS V14.01,2013-01-09 19:23:00,
2013-01-09 13:28:00,50.9,42.7,30.35,NNW,328,2.7,8.3,74,0.00,,CLR,0.00,VWS V14.01,2013-01-09 19:28:00,
2013-01-09 13:33:00,51.4,43.3,30.35,NW,325,4.9,9.2,74,0.00,,CLR,0.00,VWS V14.01,2013-01-09 19:33:00,
2013-01-09 13:38:00,51.8,43.6,30.35,NNW,345,0.0,8.7,74,0.00,,CLR,0.00,VWS V14.01,2013-01-09 19:38:00,
2013-01-09 13:43:00,52.2,44.0,30.38,WNW,283,2.2,10.1,74,0.00,,CLR,0.00,VWS V14.01,2013-01-09 19:43:00,
2013-01-09 13:48:00,52.3,44.1,30.38,North,4,4.0,10.5,74,0.00,,CLR,0.00,VWS V14.01,2013-01-09 19:48:00,
2013-01-09 13:53:00,52.2,44.0,30.38,WSW,241,4.5,10.5,74,0.00,,CLR,0.00,VWS V14.01,2013-01-09 19:53:00,
2013-01-09 13:59:00,52.2,44.0,30.38,WNW,299,5.8,8.7,74,0.00,,CLR,0.00,VWS V14.01,2013-01-09 19:59:00,
2013-01-09 14:04:00,52.2,44.0,30.38,NW,317,3.1,8.7,74,0.00,,CLR,0.00,VWS V14.01,2013-01-09 20:04:00,
2013-01-09 14:09:00,52.0,43.8,30.38,NW,317,7.6,12.3,74,0.00,,CLR,0.00,VWS V14.01,2013-01-09 20:09:00,
2013-01-09 14:14:00,51.8,43.6,30.38,NNW,334,8.3,14.5,74,0.00,,CLR,0.00,VWS V14.01,2013-01-09 20:14:00,
2013-01-09 14:19:00,51.6,43.4,30.38,NNW,329,4.9,12.8,74,0.00,,CLR,0.00,VWS V14.01,2013-01-09 20:19:00,
2013-01-09 14:24:00,51.6,43.4,30.38,North,350,5.4,7.2,74,0.00,,CLR,0.00,VWS V14.01,2013-01-09 20:24:00,
2013-01-09 14:29:00,51.6,43.4,30.38,NW,322,5.4,9.6,74,0.00,,CLR,0.00,VWS V14.01,2013-01-09 20:29:00,
2013-01-09 14:34:00,51.6,43.4,30.38,West,276,5.8,10.1,74,0.00,,CLR,0.00,VWS V14.01,2013-01-09 20:34:00,
2013-01-09 14:39:00,51.8,43.6,30.38,NNW,343,3.6,7.2,74,0.00,,CLR,0.00,VWS V14.01,2013-01-09 20:39:00,
2013-01-09 14:44:00,51.6,43.4,30.41,NNW,335,5.4,11.0,74,0.00,,CLR,0.00,VWS V14.01,2013-01-09 20:44:00,
2013-01-09 14:49:00,51.3,43.1,30.41,NW,324,7.6,13.2,74,0.00,,CLR,0.00,VWS V14.01,2013-01-09 20:49:00,
2013-01-09 14:54:00,50.9,42.7,30.41,WSW,247,3.1,10.5,74,0.00,,CLR,0.00,VWS V14.01,2013-01-09 20:54:00,
2013-01-09 14:59:00,50.7,42.6,30.41,WNW,300,8.1,15.0,74,0.00,,CLR,0.00,VWS V14.01,2013-01-09 20:59:00,
2013-01-09 15:04:00,50.5,42.4,30.41,WNW,297,7.6,11.0,74,0.00,,CLR,0.00,VWS V14.01,2013-01-09 21:04:00,
2013-01-09 15:09:00,50.4,42.2,30.41,North,353,5.8,10.5,74,0.00,,CLR,0.00,VWS V14.01,2013-01-09 21:09:00,
2013-01-09 15:14:00,50.4,42.2,30.41,North,357,6.3,8.7,74,0.00,,CLR,0.00,VWS V14.01,2013-01-09 21:14:00,
2013-01-09 15:19:00,50.4,42.2,30.41,NNW,329,3.6,6.3,74,0.00,,CLR,0.00,VWS V14.01,2013-01-09 21:19:00,
2013-01-09 15:24:00,50.4,42.2,30.41,NW,312,5.4,8.7,74,0.00,,CLR,0.00,VWS V14.01,2013-01-09 21:24:00,
2013-01-09 15:29:00,50.0,41.9,30.41,North,4,7.6,12.8,74,0.00,,CLR,0.00,VWS V14.01,2013-01-09 21:29:00,
2013-01-09 15:34:00,49.6,41.5,30.41,NNW,348,5.8,10.1,74,0.00,,CLR,0.00,VWS V14.01,2013-01-09 21:34:00,
2013-01-09 15:39:00,49.3,41.2,30.41,North,353,15.0,15.0,74,0.00,,CLR,0.00,VWS V14.01,2013-01-09 21:39:00,
2013-01-09 15:44:00,48.7,40.7,30.41,NNW,344,5.8,16.3,74,0.00,,CLR,0.00,VWS V14.01,2013-01-09 21:44:00,
2013-01-09 15:49:00,48.2,40.1,30.41,NW,325,7.6,11.0,74,0.00,,CLR,0.00,VWS V14.01,2013-01-09 21:49:00,
2013-01-09 15:54:00,47.8,41.0,30.41,WNW,293,3.1,7.6,77,0.00,,CLR,0.00,VWS V14.01,2013-01-09 21:54:00,
2013-01-09 15:59:00,47.5,40.6,30.41,NW,324,10.1,15.4,77,0.00,,CLR,0.00,VWS V14.01,2013-01-09 21:59:00,
2013-01-09 16:04:00,47.3,40.5,30.41,NNW,327,8.1,11.0,77,0.00,,CLR,0.00,VWS V14.01,2013-01-09 22:04:00,
2013-01-09 16:09:00,47.3,40.5,30.41,North,353,0.0,8.3,77,0.00,,CLR,0.00,VWS V14.01,2013-01-09 22:09:00,
2013-01-09 16:14:00,46.9,40.1,30.44,WNW,302,3.6,8.3,77,0.00,,CLR,0.00,VWS V14.01,2013-01-09 22:14:00,
2013-01-09 16:19:00,46.8,39.9,30.44,NNW,335,5.4,8.1,77,0.00,,CLR,0.00,VWS V14.01,2013-01-09 22:19:00,
2013-01-09 16:24:00,46.6,39.8,30.44,NNW,327,0.0,7.2,77,0.00,,CLR,0.00,VWS V14.01,2013-01-09 22:24:00,
2013-01-09 16:29:00,46.2,39.4,30.44,North,353,5.4,8.3,77,0.00,,CLR,0.00,VWS V14.01,2013-01-09 22:29:00,
2013-01-09 16:34:00,46.0,39.2,30.44,North,350,4.9,8.7,77,0.00,,CLR,0.00,VWS V14.01,2013-01-09 22:34:00,
2013-01-09 16:39:00,45.9,39.1,30.44,North,357,3.6,15.0,77,0.00,,CLR,0.00,VWS V14.01,2013-01-09 22:39:00,
2013-01-09 16:44:00,45.5,38.7,30.44,NW,319,5.8,10.1,77,0.00,,CLR,0.00,VWS V14.01,2013-01-09 22:44:00,
2013-01-09 16:49:00,45.1,38.4,30.44,NNW,337,3.6,6.3,77,0.00,,CLR,0.00,VWS V14.01,2013-01-09 22:49:00,
2013-01-09 16:54:00,44.6,37.8,30.44,NNW,334,6.3,7.6,77,0.00,,CLR,0.00,VWS V14.01,2013-01-09 22:54:00,
2013-01-09 16:59:00,44.2,38.6,30.44,NNW,339,5.8,6.3,80,0.00,,CLR,0.00,VWS V14.01,2013-01-09 22:59:00,
2013-01-09 17:04:00,44.1,38.5,30.44,NNW,335,5.8,6.7,80,0.00,,CLR,0.00,VWS V14.01,2013-01-09 23:04:00,
2013-01-09 17:09:00,43.5,37.9,30.44,North,0,5.4,6.3,80,0.00,,CLR,0.00,VWS V14.01,2013-01-09 23:09:00,
2013-01-09 17:15:00,43.0,37.4,30.44,North,2,4.0,6.3,80,0.00,,CLR,0.00,VWS V14.01,2013-01-09 23:15:00,
2013-01-09 17:20:00,42.8,37.2,30.44,NNW,337,0.0,6.3,80,0.00,,CLR,0.00,VWS V14.01,2013-01-09 23:20:00,
2013-01-09 17:25:00,42.4,36.9,30.44,North,353,4.0,4.9,80,0.00,,CLR,0.00,VWS V14.01,2013-01-09 23:25:00,
2013-01-09 17:30:00,42.3,36.7,30.44,North,4,0.0,4.0,80,0.00,,CLR,0.00,VWS V14.01,2013-01-09 23:30:00,
2013-01-09 17:35:00,41.9,36.3,30.44,NNW,336,0.0,3.6,80,0.00,,CLR,0.00,VWS V14.01,2013-01-09 23:35:00,
2013-01-09 17:40:00,41.5,36.0,30.44,NNW,341,0.0,0.0,80,0.00,,CLR,0.00,VWS V14.01,2013-01-09 23:40:00,
2013-01-09 17:45:00,41.2,35.7,30.44,NNW,341,0.0,0.0,80,0.00,,CLR,0.00,VWS V14.01,2013-01-09 23:45:00,
2013-01-09 17:50:00,40.6,35.1,30.44,NNW,341,0.0,0.0,80,0.00,,CLR,0.00,VWS V14.01,2013-01-09 23:50:00,
2013-01-09 17:55:00,40.3,34.8,30.44,NNW,341,0.0,0.0,80,0.00,,CLR,0.00,VWS V14.01,2013-01-09 23:55:00,
2013-01-09 18:00:00,40.1,34.6,30.47,NNW,341,0.0,0.0,80,0.00,,CLR,0.00,VWS V14.01,2013-01-10 00:00:00,
2013-01-09 18:05:00,39.7,34.2,30.47,NNW,341,0.0,0.0,80,0.00,,CLR,0.00,VWS V14.01,2013-01-10 00:05:00,
2013-01-09 18:10:00,39.4,33.9,30.47,NNW,341,0.0,0.0,80,0.00,,CLR,0.00,VWS V14.01,2013-01-10 00:10:00,
2013-01-09 18:15:00,38.8,34.4,30.47,NNW,341,0.0,0.0,84,0.00,,CLR,0.00,VWS V14.01,2013-01-10 00:15:00,
2013-01-09 18:20:00,38.5,34.1,30.47,NNW,341,0.0,0.0,84,0.00,,CLR,0.00,VWS V14.01,2013-01-10 00:20:00,
2013-01-09 18:25:00,38.3,33.9,30.47,NNW,341,0.0,0.0,84,0.00,,CLR,0.00,VWS V14.01,2013-01-10 00:25:00,
2013-01-09 18:30:00,38.1,33.7,30.47,NNW,341,0.0,0.0,84,0.00,,CLR,0.00,VWS V14.01,2013-01-10 00:30:00,
2013-01-09 18:35:00,37.9,33.5,30.47,NNW,341,0.0,0.0,84,0.00,,CLR,0.00,VWS V14.01,2013-01-10 00:35:00,
2013-01-09 18:40:00,37.6,33.2,30.47,NNW,341,0.0,0.0,84,0.00,,CLR,0.00,VWS V14.01,2013-01-10 00:40:00,
2013-01-09 18:45:00,37.4,33.0,30.47,NNW,341,0.0,0.0,84,0.00,,CLR,0.00,VWS V14.01,2013-01-10 00:45:00,
2013-01-09 18:50:00,37.2,32.8,30.47,NNW,341,0.0,0.0,84,0.00,,CLR,0.00,VWS V14.01,2013-01-10 00:50:00,
2013-01-09 18:55:00,36.9,32.5,30.47,North,349,0.0,0.0,84,0.00,,CLR,0.00,VWS V14.01,2013-01-10 00:55:00,
2013-01-09 19:00:00,36.5,32.1,30.47,North,349,0.0,0.0,84,0.00,,CLR,0.00,VWS V14.01,2013-01-10 01:00:00,
2013-01-09 19:05:00,36.3,32.0,30.47,North,349,0.0,0.0,84,0.00,,CLR,0.00,VWS V14.01,2013-01-10 01:05:00,
2013-01-09 19:10:00,36.0,31.6,30.47,North,349,0.0,0.0,84,0.00,,CLR,0.00,VWS V14.01,2013-01-10 01:10:00,
2013-01-09 19:15:00,35.8,31.4,30.50,North,349,0.0,0.0,84,0.00,,CLR,0.00,VWS V14.01,2013-01-10 01:15:00,
2013-01-09 19:21:00,35.6,31.2,30.50,NE,34,0.0,0.0,84,0.00,,CLR,0.00,VWS V14.01,2013-01-10 01:21:00,
2013-01-09 19:26:00,35.6,31.2,30.50,NE,34,0.0,0.0,84,0.00,,CLR,0.00,VWS V14.01,2013-01-10 01:26:00,
2013-01-09 19:31:00,35.6,31.2,30.50,NE,34,0.0,0.0,84,0.00,,CLR,0.00,VWS V14.01,2013-01-10 01:31:00,
2013-01-09 19:36:00,35.6,31.2,30.50,NE,34,0.0,0.0,84,0.00,,CLR,0.00,VWS V14.01,2013-01-10 01:36:00,
2013-01-09 19:41:00,35.6,31.2,30.50,NE,34,0.0,0.0,84,0.00,,CLR,0.00,VWS V14.01,2013-01-10 01:41:00,
2013-01-09 19:46:00,35.6,31.2,30.50,NE,34,0.0,0.0,84,0.00,,CLR,0.00,VWS V14.01,2013-01-10 01:46:00,
2013-01-09 19:51:00,35.8,31.4,30.50,NE,34,0.0,0.0,84,0.00,,CLR,0.00,VWS V14.01,2013-01-10 01:51:00,
2013-01-09 19:56:00,35.8,31.4,30.50,NE,34,0.0,0.0,84,0.00,,CLR,0.00,VWS V14.01,2013-01-10 01:56:00,
2013-01-09 20:01:00,35.8,31.4,30.50,NE,34,0.0,0.0,84,0.00,,CLR,0.00,VWS V14.01,2013-01-10 02:01:00,
2013-01-09 20:06:00,35.6,31.2,30.50,NE,34,0.0,0.0,84,0.00,,CLR,0.00,VWS V14.01,2013-01-10 02:06:00,
2013-01-09 20:11:00,35.4,32.1,30.50,NE,34,0.0,0.0,88,0.00,,CLR,0.00,VWS V14.01,2013-01-10 02:11:00,
2013-01-09 20:16:00,35.1,31.7,30.50,NE,34,0.0,0.0,88,0.00,,CLR,0.00,VWS V14.01,2013-01-10 02:16:00,
2013-01-09 20:21:00,35.1,31.7,30.50,NE,34,0.0,0.0,88,0.00,,CLR,0.00,VWS V14.01,2013-01-10 02:21:00,
2013-01-09 20:26:00,35.1,31.7,30.50,NE,34,0.0,0.0,88,0.00,,CLR,0.00,VWS V14.01,2013-01-10 02:26:00,
2013-01-09 20:31:00,35.1,31.7,30.50,NE,34,0.0,0.0,88,0.00,,CLR,0.00,VWS V14.01,2013-01-10 02:31:00,
2013-01-09 20:36:00,34.9,31.5,30.50,NE,34,0.0,0.0,88,0.00,,CLR,0.00,VWS V14.01,2013-01-10 02:36:00,
2013-01-09 20:41:00,34.9,31.5,30.50,NE,34,0.0,0.0,88,0.00,,CLR,0.00,VWS V14.01,2013-01-10 02:41:00,
2013-01-09 20:46:00,34.9,31.5,30.50,NE,34,0.0,0.0,88,0.00,,CLR,0.00,VWS V14.01,2013-01-10 02:46:00,
2013-01-09 20:51:00,34.7,31.4,30.50,NE,34,0.0,0.0,88,0.00,,CLR,0.00,VWS V14.01,2013-01-10 02:51:00,
2013-01-09 20:56:00,34.7,31.4,30.50,NE,34,0.0,0.0,88,0.00,,CLR,0.00,VWS V14.01,2013-01-10 02:56:00,
2013-01-09 21:01:00,34.5,31.2,30.47,NE,34,0.0,0.0,88,0.00,,CLR,0.00,VWS V14.01,2013-01-10 03:01:00,
2013-01-09 21:06:00,34.3,31.0,30.47,NE,34,0.0,0.0,88,0.00,,CLR,0.00,VWS V14.01,2013-01-10 03:06:00,
2013-01-09 21:11:00,34.0,30.7,30.47,NE,34,0.0,0.0,88,0.00,,CLR,0.00,VWS V14.01,2013-01-10 03:11:00,
2013-01-09 21:16:00,33.8,30.5,30.47,NE,34,0.0,0.0,88,0.00,,CLR,0.00,VWS V14.01,2013-01-10 03:16:00,
2013-01-09 21:21:00,33.6,30.3,30.47,NE,34,0.0,0.0,88,0.00,,CLR,0.00,VWS V14.01,2013-01-10 03:21:00,
2013-01-09 21:26:00,33.6,30.3,30.47,NE,34,0.0,0.0,88,0.00,,CLR,0.00,VWS V14.01,2013-01-10 03:26:00,
2013-01-09 21:31:00,33.6,30.3,30.50,NE,34,0.0,0.0,88,0.00,,CLR,0.00,VWS V14.01,2013-01-10 03:31:00,
2013-01-09 21:36:00,34.0,30.7,30.50,NE,34,0.0,0.0,88,0.00,,CLR,0.00,VWS V14.01,2013-01-10 03:36:00,
2013-01-09 21:41:00,34.0,30.7,30.50,NE,34,0.0,0.0,88,0.00,,CLR,0.00,VWS V14.01,2013-01-10 03:41:00,
2013-01-09 21:46:00,34.0,30.7,30.50,NE,34,0.0,0.0,88,0.00,,CLR,0.00,VWS V14.01,2013-01-10 03:46:00,
2013-01-09 21:51:00,33.8,30.5,30.50,NE,34,0.0,0.0,88,0.00,,CLR,0.00,VWS V14.01,2013-01-10 03:51:00,
2013-01-09 21:56:00,34.0,30.7,30.50,NE,34,0.0,0.0,88,0.00,,CLR,0.00,VWS V14.01,2013-01-10 03:56:00,
2013-01-09 22:01:00,33.8,30.5,30.50,NE,34,0.0,0.0,88,0.00,,CLR,0.00,VWS V14.01,2013-01-10 04:01:00,
2013-01-09 22:06:00,33.6,30.3,30.50,NE,45,0.0,0.0,88,0.00,,CLR,0.00,VWS V14.01,2013-01-10 04:06:00,
2013-01-09 22:11:00,33.6,30.3,30.50,NE,45,0.0,0.0,88,0.00,,CLR,0.00,VWS V14.01,2013-01-10 04:11:00,
2013-01-09 22:16:00,33.6,30.3,30.50,NE,45,0.0,0.0,88,0.00,,CLR,0.00,VWS V14.01,2013-01-10 04:16:00,
2013-01-09 22:21:00,33.6,30.3,30.50,NE,45,0.0,0.0,88,0.00,,CLR,0.00,VWS V14.01,2013-01-10 04:21:00,
2013-01-09 22:26:00,33.3,30.0,30.50,NE,45,0.0,0.0,88,0.00,,CLR,0.00,VWS V14.01,2013-01-10 04:26:00,
2013-01-09 22:31:00,33.1,29.8,30.50,NE,45,0.0,0.0,88,0.00,,CLR,0.00,VWS V14.01,2013-01-10 04:31:00,
2013-01-09 22:36:00,32.7,29.4,30.50,NE,45,0.0,0.0,88,0.00,,CLR,0.00,VWS V14.01,2013-01-10 04:36:00,
2013-01-09 22:41:00,32.5,29.2,30.50,ENE,58,0.0,0.0,88,0.00,,CLR,0.00,VWS V14.01,2013-01-10 04:41:00,
2013-01-09 22:46:00,32.5,29.2,30.50,ENE,63,0.0,0.0,88,0.00,,CLR,0.00,VWS V14.01,2013-01-10 04:46:00,
2013-01-09 22:51:00,32.7,29.4,30.50,ENE,63,0.0,0.0,88,0.00,,CLR,0.00,VWS V14.01,2013-01-10 04:51:00,
2013-01-09 22:56:00,32.7,29.4,30.50,ENE,63,0.0,0.0,88,0.00,,CLR,0.00,VWS V14.01,2013-01-10 04:56:00,
2013-01-09 23:00:00,32.7,29.4,30.50,ENE,63,0.0,0.0,88,0.00,,CLR,0.00,VWS V14.01,2013-01-10 05:00:00,
2013-01-09 23:01:00,32.7,29.4,30.50,ENE,63,0.0,0.0,88,0.00,,CLR,0.00,VWS V14.01,2013-01-10 05:01:00,
2013-01-09 23:02:00,32.7,29.4,30.50,ENE,63,0.0,0.0,88,0.00,,CLR,0.00,VWS V14.01,2013-01-10 05:02:00,
2013-01-09 23:03:00,32.9,29.6,30.50,ENE,63,0.0,0.0,88,0.00,,CLR,0.00,VWS V14.01,2013-01-10 05:03:00,
2013-01-09 23:08:00,33.1,29.8,30.50,ENE,63,0.0,0.0,88,0.00,,CLR,0.00,VWS V14.01,2013-01-10 05:08:00,
2013-01-09 23:13:00,33.1,29.8,30.50,ENE,63,0.0,0.0,88,0.00,,CLR,0.00,VWS V14.01,2013-01-10 05:13:00,
2013-01-09 23:18:00,33.1,29.8,30.50,ENE,63,0.0,0.0,88,0.00,,CLR,0.00,VWS V14.01,2013-01-10 05:18:00,
2013-01-09 23:23:00,33.1,29.8,30.50,ENE,63,0.0,0.0,88,0.00,,CLR,0.00,VWS V14.01,2013-01-10 05:23:00,
2013-01-09 23:28:00,33.3,30.0,30.50,ENE,63,0.0,0.0,88,0.00,,CLR,0.00,VWS V14.01,2013-01-10 05:28:00,
2013-01-09 23:33:00,33.3,30.0,30.50,ENE,63,0.0,0.0,88,0.00,,CLR,0.00,VWS V14.01,2013-01-10 05:33:00,
2013-01-09 23:38:00,33.3,30.0,30.50,ENE,63,0.0,0.0,88,0.00,,CLR,0.00,VWS V14.01,2013-01-10 05:38:00,
2013-01-09 23:43:00,33.1,29.8,30.50,ENE,63,0.0,0.0,88,0.00,,CLR,0.00,VWS V14.01,2013-01-10 05:43:00,
2013-01-09 23:48:00,33.1,29.8,30.50,ENE,63,0.0,0.0,88,0.00,,CLR,0.00,VWS V14.01,2013-01-10 05:48:00,
2013-01-09 23:53:00,33.1,29.8,30.50,ENE,63,0.0,0.0,88,0.00,,CLR,0.00,VWS V14.01,2013-01-10 05:53:00,
2013-01-09 23:58:00,33.3,30.0,30.50,ENE,63,0.0,0.0,88,0.00,,CLR,0.00,VWS V14.01,2013-01-10 05:58:00,